| time (UTC) | temp F | wind direction | speed MPH | gust MPH | rain 1hr in | rain 24hr in | rain mn in | humidity % | barometer mb |
| 20260504045806 | 61 | 0.0 | 0.0 | 0.00 | 0.00 | 0.00 | 69 | 1007.1 | |
| 20260504044307 | 61 | 0.0 | 0.0 | 0.00 | 0.00 | 0.00 | 68 | 1006.2 | |
| 20260504042807 | 61 | 0.0 | 0.0 | 0.00 | 0.00 | 0.00 | 68 | 1006.3 | |
| 20260504041306 | 61 | 0.0 | 0.0 | 0.00 | 0.00 | 0.00 | 67 | 1006.2 | |
| 20260504035806 | 62 | 0.0 | 0.0 | 0.00 | 0.00 | 0.00 | 67 | 1006.2 | |
| 20260504034307 | 62 | 0.0 | 0.0 | 0.00 | 0.00 | 0.00 | 66 | 1006.0 | |
| 20260504032807 | 64 | 0.0 | 0.0 | 0.00 | 0.00 | 0.00 | 59 | 1006.0 | |
| 20260504031306 | 64 | 0.0 | 0.0 | 0.00 | 0.00 | 0.00 | 53 | 1005.5 | |
| 20260504025806 | 65 | 0.0 | 0.0 | 0.00 | 0.00 | 0.00 | 52 | 1006.6 | |
| 20260504024307 | 65 | 0.0 | 0.0 | 0.00 | 0.00 | 0.00 | 52 | 1006.2 | |
| 20260504022807 | 65 | 0.0 | 0.0 | 0.00 | 0.00 | 0.00 | 50 | 1006.5 | |
| 20260504021307 | 66 | 0.0 | 0.0 | 0.00 | 0.00 | 0.00 | 51 | 1006.3 | |
| 20260504015807 | 66 | 0.0 | 0.0 | 0.00 | 0.00 | 0.00 | 49 | 1006.8 | |
| 20260504014307 | 67 | 0.0 | 0.0 | 0.00 | 0.00 | 0.00 | 48 | 1006.3 | |
| 20260504012807 | 67 | 0.0 | 0.0 | 0.00 | 0.00 | 0.00 | 47 | 1005.7 | |
| 20260504011307 | 68 | 0.0 | 0.0 | 0.00 | 0.00 | 0.00 | 46 | 1005.8 | |
| 20260504005807 | 68 | 0.0 | 0.0 | 0.00 | 0.00 | 0.00 | 45 | 1005.4 | |
| 20260504004306 | 68 | 0.0 | 0.0 | 0.00 | 0.00 | 0.00 | 45 | 1005.4 | |
| 20260504002807 | 69 | 0.0 | 0.0 | 0.00 | 0.00 | 0.00 | 44 | 1005.3 | |
| 20260504001307 | 69 | 0.0 | 0.0 | 0.00 | 0.00 | 0.00 | 42 | 1005.4 | |
| 20260503235806 | 70 | 0.0 | 0.0 | 0.00 | 0.00 | 0.00 | 40 | 1005.6 | |
| 20260503234307 | 71 | 0.0 | 0.0 | 0.00 | 0.00 | 0.00 | 39 | 1005.5 | |
| 20260503232806 | 71 | 0.0 | 0.0 | 0.00 | 0.00 | 0.00 | 39 | 1005.6 | |
| 20260503231307 | 72 | 0.0 | 0.0 | 0.00 | 0.00 | 0.00 | 38 | 1005.2 | |
| 20260503225807 | 72 | 0.0 | 0.0 | 0.00 | 0.00 | 0.00 | 38 | 1005.3 | |
| 20260503224307 | 71 | 0.0 | 0.0 | 0.00 | 0.00 | 0.00 | 41 | 1005.4 | |
| 20260503222807 | 71 | 0.0 | 0.0 | 0.00 | 0.00 | 0.00 | 43 | 1005.2 | |
| 20260503221307 | 67 | 0.0 | 0.0 | 0.00 | 0.00 | 0.00 | 52 | 1005.0 | |
| 20260503215807 | 67 | 0.0 | 0.0 | 0.00 | 0.00 | 0.00 | 54 | 1005.2 | |
| 20260503214307 | 66 | 0.0 | 0.0 | 0.00 | 0.00 | 0.00 | 56 | 1005.2 | |
| 20260503212807 | 67 | 0.0 | 0.0 | 0.00 | 0.00 | 0.00 | 53 | 1005.3 | |
| 20260503211307 | 67 | 0.0 | 0.0 | 0.00 | 0.00 | 0.00 | 52 | 1005.2 | |
| 20260503205807 | 68 | 0.0 | 0.0 | 0.00 | 0.00 | 0.00 | 50 | 1005.2 | |
| 20260503204307 | 70 | 0.0 | 0.0 | 0.00 | 0.00 | 0.00 | 46 | 1005.4 | |
| 20260503202808 | 71 | 0.0 | 0.0 | 0.00 | 0.00 | 0.00 | 42 | 1005.4 | |
| 20260503201307 | 72 | 0.0 | 0.0 | 0.00 | 0.00 | 0.00 | 42 | 1004.8 | |
| 20260503195806 | 72 | 0.0 | 0.0 | 0.00 | 0.00 | 0.00 | 43 | 1004.8 | |
| 20260503194306 | 70 | 0.0 | 0.0 | 0.00 | 0.00 | 0.00 | 48 | 1004.2 | |
| 20260503192806 | 70 | 0.0 | 0.0 | 0.00 | 0.00 | 0.00 | 47 | 1004.7 | |
| 20260503191307 | 71 | 0.0 | 0.0 | 0.00 | 0.00 | 0.00 | 46 | 1004.3 | |
| 20260503185807 | 73 | 0.0 | 0.0 | 0.00 | 0.00 | 0.00 | 43 | 1004.6 | |
| 20260503184307 | 74 | 0.0 | 0.0 | 0.00 | 0.00 | 0.00 | 41 | 1004.5 | |
| 20260503182807 | 76 | 0.0 | 0.0 | 0.00 | 0.00 | 0.00 | 38 | 1004.4 | |
| 20260503181307 | 78 | 0.0 | 0.0 | 0.00 | 0.00 | 0.00 | 34 | 1004.5 | |
| 20260503175807 | 79 | 0.0 | 0.0 | 0.00 | 0.00 | 0.00 | 32 | 1004.7 | |
| 20260503174306 | 80 | 0.0 | 0.0 | 0.00 | 0.00 | 0.00 | 30 | 1004.1 | |
| 20260503172807 | 81 | 0.0 | 0.0 | 0.00 | 0.00 | 0.00 | 28 | 1004.4 | |
| 20260503171307 | 81 | 0.0 | 0.0 | 0.00 | 0.00 | 0.00 | 27 | 1005.2 | |
| 20260503131306 | 85 | 0.0 | 0.0 | 0.00 | 0.00 | 0.00 | 26 | 1006.3 | |
| 20260503081306 | 73 | 0.0 | 0.0 | 0.00 | 0.00 | 0.00 | 43 | 1008.3 | |
| 20260503072807 | 69 | 0.0 | 0.0 | 0.00 | 0.00 | 0.00 | 47 | 1008.3 | |
| 20260503071306 | 67 | 0.0 | 0.0 | 0.00 | 0.00 | 0.00 | 47 | 1008.8 |